Regional Weather Roundup
Issued by NWS

Home | Current Version | Previous Version | Graphics & Text | Print | Product List | Glossary On
Versions: 1 2 3 4 5 6 7 8 9 10 11 12 13 14 15 16 17 18 19 20 21 22 23 24 25 26 27 28 29 30 31 32 33 34 35 36 37 38 39 40 41 42 43 44 45 46 47 48 49 50
092
ASUS45 KTFX 260710
RWRMT
MONTANA REGIONAL WEATHER ROUNDUP
NATIONAL WEATHER SERVICE GREAT FALLS MT
1200 AM MST SUN FEB 26 2017

NOTE: "FAIR" INDICATES FEW OR NO CLOUDS BELOW 12000 FEET WITH NO
SIGNIFICANT WEATHER AND/OR OBSTRUCTIONS TO VISIBILITY.

MTZ001>007-043-260800-
WEST OF THE DIVIDE

CITY           SKY/WX    TMP DP  RH WIND       PRES   REMARKS
KALISPELL      LGT SNOW  25  22  88 S8        29.81F FOG     WCI  16
MISSOULA       CLOUDY    29  18  63 CALM      29.84F
BUTTE          CLOUDY    21   6  52 W8        29.74F WCI  11
MULLAN PASS    LGT SNOW  15  14  95 VRB6      29.66F VSB 3/4 WCI   6
ANACONDA         N/A     21   9  58 CALM      29.76F
DEER LODGE       N/A     21  10  63 CALM      29.78F
EUREKA           N/A     27  19  74 SE10      29.79F WCI  17
HAMILTON         N/A     28  12  50 S10       29.82F WCI  19
LIBBY            N/A     27  25  93 CALM      29.80F
PLAINS           N/A     29  19  66 CALM      29.85F
RONAN            N/A     25  22  88 E1        29.88F
$$

MTZ008-052>055-260800-
SOUTHWEST MONTANA

CITY           SKY/WX    TMP DP  RH WIND       PRES   REMARKS
BOZEMAN        CLOUDY    22   9  57 S6        29.78S WCI  14
DILLON         CLOUDY    20   9  62 SW14      29.77S WCI   7
W YELLOWSTONE  LGT SNOW   9   5  85 SW3       29.79S
ENNIS          CLOUDY    19   9  63 S13G20    29.82F WCI   7
THREE FORKS      N/A     26  26 100 SW9       29.79F WCI  17
TWIN BRIDGES     N/A     22   7  52 S10       29.80S WCI  11
$$

MTZ009-010-012-014-046-048-049-054-260800-
EAST SLOPES AND CENTRAL MONTANA

CITY           SKY/WX    TMP DP  RH WIND       PRES   REMARKS
CUT BANK       CLOUDY    25  14  63 W21G29    29.63R WCI  11
GREAT FALLS    CLOUDY    28   9  44 SW18      29.67R WCI  15
MALMSTROM AFB  CLOUDY    28  10  46 SW16      29.69R WCI  16
HELENA         CLOUDY    28  10  46 W13G23    29.76S WCI  17
AUGUSTA        CLOUDY    26   6  43 W26G33    29.63R WCI  10
BOWMANS CRNR   CLOUDY    25   7  47 W16       29.65R WCI  12
CHOTEAU          N/A     28   7  40 W17G25    29.66R WCI  16
CONRAD           N/A     28  15  58 W14       29.70R WCI  17
POWER          CLOUDY    27  10  47 W10       29.65R WCI  17
RAYNESFORD     MOCLDY    26  11  53 W24G31    29.66R WCI  11
ULM            MOCLDY    28  10  48 MISG      29.69R
$$

MTZ011-013-016-021-045-047-050-051-260800-
NORTH CENTRAL MONTANA

CITY           SKY/WX    TMP DP  RH WIND       PRES   REMARKS
HAVRE          CLOUDY    30  20  66 W21       29.64R WCI  17
LEWISTOWN      PTCLDY    20   9  62 SW15      29.63S WCI   6
N BAR RANCH    CLOUDY    21   5  49 W8        29.63S WCI  12
CHINOOK          N/A     30  19  64 W10       29.63F WCI  21
DENTON         MOCLDY    26  12  53 W23G29    29.61S WCI  12
FORT BENTON      N/A     30  16  55 MISG      29.69R
GEYSER         MOCLDY    25  11  55 W15G23    29.64R WCI  13
GRASS RANGE    MOCLDY    21  10  63 W13       29.60R WCI   9
JUDITH GAP       N/A     13   3  63 CALM      29.63R
ROY              N/A     21  12  69 MISG      29.61S
STANFORD       MOCLDY    24  11  55 W22       29.63R WCI   9
WINIFRED       MOCLDY    24  13  63 W15       29.62R WCI  11
$$

MTZ017>020-022>027-061-062-260800-
NORTHEAST MONTANA

CITY           SKY/WX    TMP DP  RH WIND       PRES   REMARKS
GLASGOW        CLOUDY    18  14  84 E12       29.65S WCI   5
JORDAN           N/A     24  19  81 W6        29.63S WCI  17
SIDNEY         CLOUDY    17  14  88 CALM      29.71S
WOLF POINT     CLOUDY    15  10  80 E5        29.70S
PLENTYWOOD       N/A      7   3  85 CALM      29.69S
POPLAR           N/A     14  10  85 CALM      29.71S
SCOBEY           N/A      6  -3  66 CALM      29.67S
$$

MTZ028>42-056>058-260800-
SOUTHCENTRAL AND SOUTHEAST MONTANA

CITY           SKY/WX    TMP DP  RH WIND       PRES   REMARKS
BAKER          MOCLDY    20  16  84 W5        29.65F
BILLINGS       PTCLDY    23  12  62 SW13      29.68S WCI  11
LIVINGSTON     CLOUDY    23   7  50 SW32G39   29.71F WCI   5
MILES CITY     MOCLDY    26  17  68 SW10      29.67S WCI  16
BIG TIMBER     CLOUDY    23  12  63 W40G47    29.67F HAZE    WCI   3
FORSYTH          N/A     27  12  54 SW7       29.68S WCI  19
HARLOWTON      CLOUDY    23   9  53 NW26G33   29.64S WCI   6
LAUREL           N/A     17   6  62 SW5       29.69S
$$

REGIONAL REPORTS...DAKOTAS

CITY           SKY/WX    TMP DP  RH WIND       PRES   REMARKS
WILLISTON      CLOUDY     5   2  87 CALM      29.73R
MINOT          PTCLDY     5   2  87 SW6       29.71R WCI  -6
DICKINSON      CLOUDY    16  13  88 NE9       29.64S WCI   4
BEACH            N/A    N/A N/A N/A MISG        N/A
CROSBY           N/A      5   5 100 S7        29.73S WCI  -7
TIOGA          FOG       -2  -4  92 W5        29.71S VSB 1/4
WATFORD CITY   CLOUDY     9   7  92 CALM      29.71S
BISMARCK       CLEAR     19  14  81 N9        29.70R WCI   8
GRAND FORKS    LGT SNOW  15   8  73 N12       29.74R VSB 3/4 WCI   2
FARGO          PTCLDY    21  18  88 SW3       29.68F
BUFFALO SD       N/A     17  13  84 W10       29.60S WCI   5
RAPID CITY     CLEAR     17  10  74 W9        29.71S WCI   6
$$

REGIONAL REPORTS...WYOMING/IDAHO/WASHINGTON

CITY           SKY/WX    TMP DP  RH WIND       PRES   REMARKS
GILLETTE       CLOUDY    21  16  81 SW9       29.70R WCI  11
SHERIDAN       CLEAR     15   6  67 SE14      29.69F WCI   0
BUFFALO WY     CLEAR     12  -1  56 W3        29.67S
CODY           CLEAR     22   2  42 SW25G33   29.69S WCI   5
YELLOWSTONE LA   N/A      2  -1  88 CALM      29.75S
IDAHO FALLS    CLOUDY    10   8  92 SW6       29.91S WCI   0
SALMON         CLOUDY    27  10  50 SW10      29.86F WCI  17
BOISE          CLOUDY    30  20  66 SE9       29.96F WCI  22
SPOKANE        FLURRIES  31  24  75 SW12      29.81F WCI  22
$$

REGIONAL REPORTS...ALBERTA

CITY           SKY/WX    TMP DP  RH WIND       PRES   REMARKS
EDMONTON       FLURRIES  19  14  79 NW6       29.74R WCI  11
CALGARY        CLOUDY    19  16  86 NW13      29.67R FOG     WCI   7
LETHBRIDGE     LGT SNOW  23 N/A N/A NW7       29.69R VSB 3/4 WCI  15
MEDICINE HAT   LGT SNOW  25  21  86 NW9       29.65R WCI  15
WATERTON GATE    N/A     23  10  58 SW22G31     N/A  WCI   8
CARDSTON         N/A     25  10  54 W15G22      N/A  WCI  12
MILK RIVER       N/A     25  21  86 NW24G31     N/A  WCI   9
$$

REGIONAL REPORTS...SASKATCHEWAN

CITY           SKY/WX    TMP DP  RH WIND       PRES   REMARKS
SWIFT CURRENT  LGT SNOW  16  14  93 SW8       29.59S WCI   5
REGINA         PTCLDY     5   1  85 S7        29.67F WCI  -7
SASKATOON      FLURRIES  16  12  86 W7        29.65S WCI   6
CYPRESS HILLS    N/A     19  12  73 NW5         N/A
VAL MARIE        N/A     14  10  85 E1          N/A
ROCKGLEN         N/A     10   9  92 S9          N/A  WCI  -2
ASSINIBOIA       N/A     18  14  86 NW10        N/A  WCI   6
$$




USA.gov is the U.S. government's official web portal to all federal, state and local government web resources and services.